Weather History for McAllen, TX

Change the Weather History Date:

Friday, March 29, 2013

  Actual Average Record
Temperature  
Mean Temperature 75 °F 74 °F  
Max Temperature 86 °F 85 °F 99 °F (1972)
Min Temperature 64 °F 62 °F 40 °F (1955)
Degree Days  
Heating Degree Days 0 1  
Month to date heating degree days 16 40  
Since 1 July heating degree days 312 573  
Cooling Degree Days 10 9  
Month to date cooling degree days 189 199  
Year to date cooling degree days 438 358  
Growing Degree Days 24 (Base 50)    
Moisture  
Dew Point 61 °F    
Average Humidity 62    
Maximum Humidity 87    
Minimum Humidity 37    
Precipitation  
Precipitation 0.00 in 0.04 in 4.37 in (2012)
Month to date precipitation T 0.98  
Year to date precipitation 0.99 3.14  
Sea Level Pressure  
Sea Level Pressure 30.09 in    
Wind  
Wind Speed 15 mph (SE)    
Max Wind Speed 26 mph    
Max Gust Speed 31 mph    
Visibility 10 miles    
Events      
T = Trace of Precipitation, MM = Missing Value Source: NWS Daily Summary

Daily Weather History Graph

Daily Weather History Graph

Search for Another Location

Airport:

Trip Planner

Search our weather history database for the weather conditions in past years. The results will help you decide how hot, cold, wet, or windy it might be!

Date:

Astronomy

Mar. 29, 2013 Rise Set
Actual Time 7:26 AM CDT 7:48 PM CDT
Civil Twilight 7:03 AM CDT 8:11 PM CDT
Nautical Twilight 6:36 AM CDT 8:38 PM CDT
Astronomical Twilight 6:09 AM CDT 9:06 PM CDT
Moon 10:30 PM CDT (3/29) 8:53 AM CDT (3/29)
Length of Visible Light 13h 08m
Length of Day
12h 21m
Waning Gibbous, 93% of the Moon is Illuminated
Mar 29
Waning Gibbous
Apr 2
Last Quarter
Apr 10
New
Apr 18
First Quarter
Apr 25
Full

Hourly Weather History & Observations

Time (CDT) Temp. Heat Index Dew Point Humidity Pressure Visibility Wind Dir Wind Speed Gust Speed Precip Events Conditions
12:53 AM 66.9 °F - 60.1 °F 79% 30.14 in 10.0 mi SE 12.7 mph - N/A   Clear
1:53 AM 66.9 °F - 60.1 °F 79% 30.13 in 10.0 mi SE 10.4 mph - N/A   Clear
2:53 AM 66.0 °F - 60.1 °F 81% 30.12 in 10.0 mi ESE 6.9 mph - N/A   Clear
3:53 AM 64.9 °F - 60.1 °F 84% 30.10 in 10.0 mi SE 6.9 mph - N/A   Mostly Cloudy
4:53 AM 66.0 °F - 60.1 °F 81% 30.09 in 9.0 mi ESE 8.1 mph - N/A   Clear
5:53 AM 64.0 °F - 60.1 °F 87% 30.09 in 10.0 mi ESE 6.9 mph - N/A   Clear
6:53 AM 64.0 °F - 60.1 °F 87% 30.11 in 10.0 mi ESE 6.9 mph - N/A   Clear
7:53 AM 64.0 °F - 60.1 °F 87% 30.12 in 10.0 mi ESE 8.1 mph - N/A   Clear
8:45 AM 68.0 °F - 60.8 °F 78% 30.13 in 10.0 mi ESE 10.4 mph - N/A   Mostly Cloudy
8:53 AM 68.0 °F - 61.0 °F 78% 30.13 in 10.0 mi ESE 11.5 mph - N/A   Mostly Cloudy
9:53 AM 73.0 °F - 61.0 °F 66% 30.14 in 10.0 mi SE 17.3 mph - N/A   Overcast
10:19 AM 75.2 °F - 62.6 °F 65% 30.14 in 10.0 mi SE 17.3 mph - N/A   Overcast
10:53 AM 78.1 °F - 62.1 °F 58% 30.14 in 10.0 mi SE 20.7 mph 28.8 mph N/A   Overcast
11:09 AM 77.0 °F - 62.6 °F 61% 30.15 in 10.0 mi SSE 19.6 mph - N/A   Overcast
11:53 AM 79.0 °F - 61.0 °F 54% 30.14 in 10.0 mi SSE 19.6 mph 27.6 mph N/A   Overcast
12:53 PM 81.0 °F 81.6 °F 60.1 °F 49% 30.11 in 10.0 mi SSE 15.0 mph 26.5 mph N/A   Mostly Cloudy
1:53 PM 84.0 °F 84.0 °F 60.1 °F 44% 30.08 in 10.0 mi SE 21.9 mph 28.8 mph N/A   Scattered Clouds
2:53 PM 84.9 °F 84.4 °F 59.0 °F 41% 30.04 in 10.0 mi SE 23.0 mph 27.6 mph N/A   Mostly Cloudy
3:53 PM 84.9 °F 84.4 °F 59.0 °F 41% 30.02 in 10.0 mi SE 18.4 mph - N/A   Mostly Cloudy
4:53 PM 84.0 °F 83.0 °F 55.9 °F 38% 30.00 in 10.0 mi SE 15.0 mph 25.3 mph N/A   Scattered Clouds
5:53 PM 84.0 °F 84.0 °F 60.1 °F 44% 30.00 in 10.0 mi ESE 20.7 mph 27.6 mph N/A   Mostly Cloudy
6:53 PM 79.0 °F - 62.1 °F 56% 30.02 in 10.0 mi SE 19.6 mph - N/A   Overcast
7:53 PM 77.0 °F - 62.1 °F 60% 30.04 in 10.0 mi SE 17.3 mph - N/A   Overcast
8:53 PM 73.9 °F - 63.0 °F 68% 30.05 in 10.0 mi ESE 12.7 mph - N/A   Scattered Clouds
9:37 PM 73.4 °F - 64.4 °F 73% 30.07 in 10.0 mi ESE 13.8 mph - N/A   Mostly Cloudy
9:53 PM 73.0 °F - 64.0 °F 73% 30.06 in 10.0 mi SE 17.3 mph - N/A   Overcast
10:53 PM 72.0 °F - 64.0 °F 76% 30.08 in 10.0 mi SE 19.6 mph - N/A   Overcast
11:53 PM 71.1 °F - 64.0 °F 78% 30.08 in 10.0 mi SE 17.3 mph - N/A   Overcast